Time,TemperatureF,DewpointF,PressureIn,WindDirection,WindDirectionDegrees,WindSpeedMPH,WindSpeedGustMPH,Humidity,HourlyPrecipIn,Conditions,Clouds,dailyrainin,SoftwareType,DateUTC
2013-08-24 00:01:00,66.0,58.6,29.98,NE,53,1.0,2.0,77,0.00,,,0.00,Wunderground v.1.15,2013-08-24 04:01:00,
2013-08-24 00:03:00,66.3,58.9,29.98,ENE,58,1.0,2.0,77,0.00,,,0.00,Wunderground v.1.15,2013-08-24 04:03:00,
2013-08-24 00:08:00,66.7,58.9,29.98,NE,34,1.0,2.0,76,0.00,,,0.00,Wunderground v.1.15,2013-08-24 04:08:00,
2013-08-24 00:13:00,66.7,58.9,29.98,NE,44,1.0,1.0,76,0.00,,,0.00,Wunderground v.1.15,2013-08-24 04:13:00,
2013-08-24 00:18:00,66.5,58.7,29.99,NE,46,0.0,1.0,76,0.00,,,0.00,Wunderground v.1.15,2013-08-24 04:18:00,
2013-08-24 00:23:00,66.3,58.5,29.99,NE,51,0.0,1.0,76,0.00,,,0.00,Wunderground v.1.15,2013-08-24 04:23:00,
2013-08-24 00:28:00,66.0,58.6,29.99,NE,51,1.0,1.0,77,0.00,,,0.00,Wunderground v.1.15,2013-08-24 04:28:00,
2013-08-24 00:33:00,65.7,58.3,29.99,NE,51,0.0,0.0,77,0.00,,,0.00,Wunderground v.1.15,2013-08-24 04:33:00,
2013-08-24 00:38:00,65.4,58.4,30.00,NE,51,1.0,1.0,78,0.00,,,0.00,Wunderground v.1.15,2013-08-24 04:38:00,
2013-08-24 00:43:00,65.4,58.4,30.00,NE,47,0.0,1.0,78,0.00,,,0.00,Wunderground v.1.15,2013-08-24 04:43:00,
2013-08-24 00:49:00,65.3,58.3,30.00,NE,46,0.0,1.0,78,0.00,,,0.00,Wunderground v.1.15,2013-08-24 04:49:00,
2013-08-24 00:54:00,65.1,58.4,30.00,NE,47,0.0,1.0,79,0.00,,,0.00,Wunderground v.1.15,2013-08-24 04:54:00,
2013-08-24 00:59:00,65.0,58.0,30.00,NNE,27,1.0,2.0,78,0.00,,,0.00,Wunderground v.1.15,2013-08-24 04:59:00,
2013-08-24 01:04:00,64.9,57.9,30.00,NNE,27,0.0,2.0,78,0.00,,,0.00,Wunderground v.1.15,2013-08-24 05:04:00,
2013-08-24 01:09:00,64.8,57.8,30.00,ENE,61,0.0,2.0,78,0.00,,,0.00,Wunderground v.1.15,2013-08-24 05:09:00,
2013-08-24 01:14:00,64.7,57.7,30.00,ENE,58,1.0,1.0,78,0.00,,,0.00,Wunderground v.1.15,2013-08-24 05:14:00,
2013-08-24 01:19:00,64.7,57.3,30.00,ENE,61,1.0,3.0,77,0.00,,,0.00,Wunderground v.1.15,2013-08-24 05:19:00,
2013-08-24 01:25:00,64.8,57.4,30.00,NE,44,2.0,2.0,77,0.00,,,0.00,Wunderground v.1.15,2013-08-24 05:25:00,
2013-08-24 01:30:00,64.9,57.2,30.00,North,6,1.0,2.0,76,0.00,,,0.00,Wunderground v.1.15,2013-08-24 05:30:00,
2013-08-24 01:35:00,64.9,57.2,30.00,NE,42,0.0,2.0,76,0.00,,,0.00,Wunderground v.1.15,2013-08-24 05:35:00,
2013-08-24 01:40:00,64.9,56.8,30.01,ENE,74,1.0,2.0,75,0.00,,,0.00,Wunderground v.1.15,2013-08-24 05:40:00,
2013-08-24 01:45:00,65.1,56.6,30.01,ENE,59,1.0,3.0,74,0.00,,,0.00,Wunderground v.1.15,2013-08-24 05:45:00,
2013-08-24 01:50:00,65.2,56.7,30.01,ENE,78,1.0,3.0,74,0.00,,,0.00,Wunderground v.1.15,2013-08-24 05:50:00,
2013-08-24 01:55:00,65.3,56.4,30.01,NE,44,2.0,2.0,73,0.00,,,0.00,Wunderground v.1.15,2013-08-24 05:55:00,
2013-08-24 02:01:00,65.2,56.3,30.01,NE,43,1.0,1.0,73,0.00,,,0.00,Wunderground v.1.15,2013-08-24 06:01:00,
2013-08-24 02:06:00,65.3,56.0,30.02,East,88,0.0,1.0,72,0.00,,,0.00,Wunderground v.1.15,2013-08-24 06:06:00,
2013-08-24 02:11:00,65.3,56.0,30.02,ESE,107,1.0,1.0,72,0.00,,,0.00,Wunderground v.1.15,2013-08-24 06:11:00,
2013-08-24 02:16:00,65.5,55.8,30.02,ENE,68,1.0,3.0,71,0.00,,,0.00,Wunderground v.1.15,2013-08-24 06:16:00,
2013-08-24 02:21:00,65.7,55.6,30.02,ENE,70,1.0,1.0,70,0.00,,,0.00,Wunderground v.1.15,2013-08-24 06:21:00,
2013-08-24 02:27:00,65.9,55.4,30.02,NE,39,1.0,4.0,69,0.00,,,0.00,Wunderground v.1.15,2013-08-24 06:27:00,
2013-08-24 02:32:00,66.1,55.2,30.02,ENE,76,2.0,3.0,68,0.00,,,0.00,Wunderground v.1.15,2013-08-24 06:32:00,
2013-08-24 02:37:00,66.3,55.4,30.02,NE,47,2.0,4.0,68,0.00,,,0.00,Wunderground v.1.15,2013-08-24 06:37:00,
2013-08-24 02:42:00,66.5,55.2,30.03,ENE,57,1.0,3.0,67,0.00,,,0.00,Wunderground v.1.15,2013-08-24 06:42:00,
2013-08-24 02:47:00,66.6,54.9,30.03,East,84,1.0,3.0,66,0.00,,,0.00,Wunderground v.1.15,2013-08-24 06:47:00,
2013-08-24 02:52:00,66.6,54.9,30.03,ENE,61,2.0,3.0,66,0.00,,,0.00,Wunderground v.1.15,2013-08-24 06:52:00,
2013-08-24 02:57:00,66.8,54.7,30.03,East,84,2.0,8.0,65,0.00,,,0.00,Wunderground v.1.15,2013-08-24 06:57:00,
2013-08-24 03:02:00,66.7,54.6,30.04,NNE,26,7.0,8.0,65,0.00,,,0.00,Wunderground v.1.15,2013-08-24 07:02:00,
2013-08-24 03:07:00,66.7,54.6,30.04,NNE,23,3.0,8.0,65,0.00,,,0.00,Wunderground v.1.15,2013-08-24 07:07:00,
2013-08-24 03:12:00,66.7,54.6,30.04,East,84,4.0,4.0,65,0.00,,,0.00,Wunderground v.1.15,2013-08-24 07:12:00,
2013-08-24 03:17:00,66.6,54.0,30.04,ESE,107,3.0,6.0,64,0.00,,,0.00,Wunderground v.1.15,2013-08-24 07:17:00,
2013-08-24 03:22:00,66.5,53.9,30.05,ENE,63,0.0,2.0,64,0.00,,,0.00,Wunderground v.1.15,2013-08-24 07:22:00,
2013-08-24 03:27:00,66.3,53.8,30.04,ESE,107,2.0,4.0,64,0.00,,,0.00,Wunderground v.1.15,2013-08-24 07:27:00,
2013-08-24 03:32:00,66.2,53.7,30.05,NNE,15,1.0,5.0,64,0.00,,,0.00,Wunderground v.1.15,2013-08-24 07:32:00,
2013-08-24 03:37:00,66.2,53.7,30.05,ENE,74,2.0,5.0,64,0.00,,,0.00,Wunderground v.1.15,2013-08-24 07:37:00,
2013-08-24 03:42:00,66.3,53.8,30.05,ENE,75,0.0,2.0,64,0.00,,,0.00,Wunderground v.1.15,2013-08-24 07:42:00,
2013-08-24 03:47:00,66.1,53.6,30.05,ENE,71,3.0,6.0,64,0.00,,,0.00,Wunderground v.1.15,2013-08-24 07:47:00,
2013-08-24 03:52:00,65.9,53.4,30.05,ENE,58,1.0,3.0,64,0.00,,,0.00,Wunderground v.1.15,2013-08-24 07:52:00,
2013-08-24 03:57:00,65.6,53.5,30.05,NE,56,1.0,5.0,65,0.00,,,0.00,Wunderground v.1.15,2013-08-24 07:57:00,
2013-08-24 04:02:00,65.5,53.4,30.06,NE,45,3.0,3.0,65,0.00,,,0.00,Wunderground v.1.15,2013-08-24 08:02:00,
2013-08-24 04:07:00,65.3,53.6,30.06,ENE,63,2.0,4.0,66,0.00,,,0.00,Wunderground v.1.15,2013-08-24 08:07:00,
2013-08-24 04:12:00,65.0,53.4,30.06,ENE,76,1.0,4.0,66,0.00,,,0.00,Wunderground v.1.15,2013-08-24 08:12:00,
2013-08-24 04:17:00,64.8,53.6,30.06,NNE,22,3.0,4.0,67,0.00,,,0.00,Wunderground v.1.15,2013-08-24 08:17:00,
2013-08-24 04:22:00,64.5,53.3,30.06,North,10,2.0,2.0,67,0.00,,,0.00,Wunderground v.1.15,2013-08-24 08:22:00,
2013-08-24 04:27:00,64.3,53.5,30.06,NE,51,3.0,5.0,68,0.00,,,0.00,Wunderground v.1.15,2013-08-24 08:27:00,
2013-08-24 04:32:00,64.1,53.3,30.06,East,86,0.0,3.0,68,0.00,,,0.00,Wunderground v.1.15,2013-08-24 08:32:00,
2013-08-24 04:37:00,63.9,53.1,30.06,ENE,75,1.0,4.0,68,0.00,,,0.00,Wunderground v.1.15,2013-08-24 08:37:00,
2013-08-24 04:42:00,63.8,53.0,30.06,NNE,27,1.0,4.0,68,0.00,,,0.00,Wunderground v.1.15,2013-08-24 08:42:00,
2013-08-24 04:48:00,63.7,53.3,30.07,ENE,59,1.0,4.0,69,0.00,,,0.00,Wunderground v.1.15,2013-08-24 08:48:00,
2013-08-24 04:53:00,63.5,53.1,30.07,NE,51,3.0,4.0,69,0.00,,,0.00,Wunderground v.1.15,2013-08-24 08:53:00,
2013-08-24 04:58:00,63.3,53.0,30.07,NNE,16,3.0,4.0,69,0.00,,,0.00,Wunderground v.1.15,2013-08-24 08:58:00,
2013-08-24 05:03:00,63.0,53.1,30.07,NE,43,3.0,3.0,70,0.00,,,0.00,Wunderground v.1.15,2013-08-24 09:03:00,
2013-08-24 05:08:00,62.8,53.3,30.07,ENE,65,2.0,5.0,71,0.00,,,0.00,Wunderground v.1.15,2013-08-24 09:08:00,
2013-08-24 05:13:00,62.5,53.0,30.07,NE,39,2.0,2.0,71,0.00,,,0.00,Wunderground v.1.15,2013-08-24 09:13:00,
2013-08-24 05:18:00,62.4,52.9,30.08,ENE,77,2.0,3.0,71,0.00,,,0.00,Wunderground v.1.15,2013-08-24 09:18:00,
2013-08-24 05:23:00,62.3,52.8,30.08,NE,41,2.0,2.0,71,0.00,,,0.00,Wunderground v.1.15,2013-08-24 09:23:00,
2013-08-24 05:28:00,62.1,53.0,30.08,NE,43,1.0,2.0,72,0.00,,,0.00,Wunderground v.1.15,2013-08-24 09:28:00,
2013-08-24 05:33:00,61.9,52.8,30.08,NE,50,1.0,3.0,72,0.00,,,0.00,Wunderground v.1.15,2013-08-24 09:33:00,
2013-08-24 05:38:00,61.9,52.8,30.08,NE,44,1.0,4.0,72,0.00,,,0.00,Wunderground v.1.15,2013-08-24 09:38:00,
2013-08-24 05:43:00,61.7,52.6,30.09,NE,51,2.0,3.0,72,0.00,,,0.00,Wunderground v.1.15,2013-08-24 09:43:00,
2013-08-24 05:48:00,61.4,52.7,30.09,NE,45,1.0,3.0,73,0.00,,,0.00,Wunderground v.1.15,2013-08-24 09:48:00,
2013-08-24 05:53:00,61.3,52.6,30.09,NE,37,1.0,4.0,73,0.00,,,0.00,Wunderground v.1.15,2013-08-24 09:53:00,
2013-08-24 05:58:00,61.1,52.4,30.09,NE,47,2.0,4.0,73,0.00,,,0.00,Wunderground v.1.15,2013-08-24 09:58:00,
2013-08-24 06:03:00,60.9,52.6,30.09,ENE,70,1.0,2.0,74,0.00,,,0.00,Wunderground v.1.15,2013-08-24 10:03:00,
2013-08-24 06:08:00,60.7,52.7,30.10,ENE,74,1.0,2.0,75,0.00,,,0.00,Wunderground v.1.15,2013-08-24 10:08:00,
2013-08-24 06:13:00,60.4,52.4,30.10,NE,37,0.0,3.0,75,0.00,,,0.00,Wunderground v.1.15,2013-08-24 10:13:00,
2013-08-24 06:18:00,60.2,52.6,30.10,NE,51,2.0,3.0,76,0.00,,,0.00,Wunderground v.1.15,2013-08-24 10:18:00,
2013-08-24 06:23:00,60.1,52.5,30.10,ENE,61,1.0,3.0,76,0.00,,,0.00,Wunderground v.1.15,2013-08-24 10:23:00,
2013-08-24 06:29:00,60.0,52.8,30.10,ENE,57,1.0,3.0,77,0.00,,,0.00,Wunderground v.1.15,2013-08-24 10:29:00,
2013-08-24 06:34:00,59.8,52.6,30.11,ENE,68,1.0,2.0,77,0.00,,,0.00,Wunderground v.1.15,2013-08-24 10:34:00,
2013-08-24 06:39:00,59.7,52.8,30.11,NE,53,1.0,2.0,78,0.00,,,0.00,Wunderground v.1.15,2013-08-24 10:39:00,
2013-08-24 06:44:00,59.6,52.7,30.11,NE,46,1.0,3.0,78,0.00,,,0.00,Wunderground v.1.15,2013-08-24 10:44:00,
2013-08-24 06:49:00,59.9,53.4,30.11,ENE,58,1.0,3.0,79,0.00,,,0.00,Wunderground v.1.15,2013-08-24 10:49:00,
2013-08-24 06:54:00,60.2,53.3,30.12,ENE,58,1.0,2.0,78,0.00,,,0.00,Wunderground v.1.15,2013-08-24 10:54:00,
2013-08-24 06:59:00,60.5,53.6,30.12,NE,46,1.0,3.0,78,0.00,,,0.00,Wunderground v.1.15,2013-08-24 10:59:00,
2013-08-24 07:04:00,60.8,53.9,30.12,NE,46,0.0,2.0,78,0.00,,,0.00,Wunderground v.1.15,2013-08-24 11:04:00,
2013-08-24 07:09:00,60.9,53.6,30.12,NE,51,1.0,3.0,77,0.00,,,0.00,Wunderground v.1.15,2013-08-24 11:09:00,
2013-08-24 07:14:00,60.8,53.9,30.12,NE,45,2.0,4.0,78,0.00,,,0.00,Wunderground v.1.15,2013-08-24 11:14:00,
2013-08-24 07:19:00,61.0,54.1,30.12,NNE,29,1.0,4.0,78,0.00,,,0.00,Wunderground v.1.15,2013-08-24 11:19:00,
2013-08-24 07:24:00,61.1,53.8,30.13,ENE,58,1.0,3.0,77,0.00,,,0.00,Wunderground v.1.15,2013-08-24 11:24:00,
2013-08-24 07:29:00,61.4,54.1,30.13,NE,34,0.0,4.0,77,0.00,,,0.00,Wunderground v.1.15,2013-08-24 11:29:00,
2013-08-24 07:34:00,61.8,54.2,30.13,NNE,30,2.0,3.0,76,0.00,,,0.00,Wunderground v.1.15,2013-08-24 11:34:00,
2013-08-24 07:39:00,62.1,54.4,30.13,North,8,2.0,3.0,76,0.00,,,0.00,Wunderground v.1.15,2013-08-24 11:39:00,
2013-08-24 07:44:00,62.4,54.0,30.13,NE,49,1.0,3.0,74,0.00,,,0.00,Wunderground v.1.15,2013-08-24 11:44:00,
2013-08-24 07:49:00,62.8,54.8,30.14,East,80,1.0,3.0,75,0.00,,,0.00,Wunderground v.1.15,2013-08-24 11:49:00,
2013-08-24 07:55:00,63.2,54.4,30.14,ENE,58,1.0,3.0,73,0.00,,,0.00,Wunderground v.1.15,2013-08-24 11:55:00,
2013-08-24 08:00:00,63.6,54.4,30.14,NNE,16,0.0,4.0,72,0.00,,,0.00,Wunderground v.1.15,2013-08-24 12:00:00,
2013-08-24 08:05:00,63.9,54.3,30.14,ENE,59,2.0,4.0,71,0.00,,,0.00,Wunderground v.1.15,2013-08-24 12:05:00,
2013-08-24 08:10:00,64.4,54.8,30.14,NE,47,2.0,5.0,71,0.00,,,0.00,Wunderground v.1.15,2013-08-24 12:10:00,
2013-08-24 08:15:00,64.8,54.4,30.14,East,84,2.0,5.0,69,0.00,,,0.00,Wunderground v.1.15,2013-08-24 12:15:00,
2013-08-24 08:20:00,65.1,54.3,30.15,East,89,2.0,5.0,68,0.00,,,0.00,Wunderground v.1.15,2013-08-24 12:20:00,
2013-08-24 08:25:00,65.6,54.8,30.15,East,96,2.0,7.0,68,0.00,,,0.00,Wunderground v.1.15,2013-08-24 12:25:00,
2013-08-24 08:30:00,65.9,54.2,30.15,ENE,75,2.0,7.0,66,0.00,,,0.00,Wunderground v.1.15,2013-08-24 12:30:00,
2013-08-24 08:35:00,66.3,54.6,30.15,East,92,5.0,5.0,66,0.00,,,0.00,Wunderground v.1.15,2013-08-24 12:35:00,
2013-08-24 08:40:00,66.6,54.5,30.15,SE,141,2.0,5.0,65,0.00,,,0.00,Wunderground v.1.15,2013-08-24 12:40:00,
2013-08-24 08:45:00,66.8,53.8,30.15,East,86,2.0,9.0,63,0.00,,,0.00,Wunderground v.1.15,2013-08-24 12:45:00,
2013-08-24 08:50:00,67.0,54.4,30.15,North,358,2.0,9.0,64,0.00,,,0.00,Wunderground v.1.15,2013-08-24 12:50:00,
2013-08-24 08:55:00,67.5,54.0,30.15,ENE,63,2.0,6.0,62,0.00,,,0.00,Wunderground v.1.15,2013-08-24 12:55:00,
2013-08-24 09:00:00,67.9,54.0,30.16,North,6,4.0,4.0,61,0.00,,,0.00,Wunderground v.1.15,2013-08-24 13:00:00,
2013-08-24 09:06:00,68.0,54.0,30.16,ESE,109,8.0,10.0,61,0.00,,,0.00,Wunderground v.1.15,2013-08-24 13:06:00,
2013-08-24 09:11:00,68.2,53.8,30.16,ENE,77,2.0,4.0,60,0.00,,,0.00,Wunderground v.1.15,2013-08-24 13:11:00,
2013-08-24 09:16:00,68.3,54.3,30.16,SE,136,4.0,9.0,61,0.00,,,0.00,Wunderground v.1.15,2013-08-24 13:16:00,
2013-08-24 09:21:00,68.8,54.3,30.16,NE,49,2.0,3.0,60,0.00,,,0.00,Wunderground v.1.15,2013-08-24 13:21:00,
2013-08-24 09:26:00,69.1,54.6,30.16,NNE,27,2.0,5.0,60,0.00,,,0.00,Wunderground v.1.15,2013-08-24 13:26:00,
2013-08-24 09:31:00,69.1,54.6,30.16,ENE,68,2.0,2.0,60,0.00,,,0.00,Wunderground v.1.15,2013-08-24 13:31:00,
2013-08-24 09:36:00,69.3,54.4,30.16,East,79,4.0,7.0,59,0.00,,,0.00,Wunderground v.1.15,2013-08-24 13:36:00,
2013-08-24 09:41:00,69.8,54.8,30.16,NE,49,3.0,4.0,59,0.00,,,0.00,Wunderground v.1.15,2013-08-24 13:41:00,
2013-08-24 09:46:00,69.8,53.9,30.17,ESE,103,4.0,10.0,57,0.00,,,0.00,Wunderground v.1.15,2013-08-24 13:46:00,
2013-08-24 09:51:00,69.9,54.9,30.17,ESE,107,3.0,4.0,59,0.00,,,0.00,Wunderground v.1.15,2013-08-24 13:51:00,
2013-08-24 09:57:00,70.2,54.7,30.17,ENE,74,2.0,8.0,58,0.00,,,0.00,Wunderground v.1.15,2013-08-24 13:57:00,
2013-08-24 10:02:00,70.5,55.0,30.17,NE,50,1.0,6.0,58,0.00,,,0.00,Wunderground v.1.15,2013-08-24 14:02:00,
2013-08-24 10:07:00,70.9,54.9,30.17,East,84,3.0,6.0,57,0.00,,,0.00,Wunderground v.1.15,2013-08-24 14:07:00,
2013-08-24 10:12:00,71.2,55.7,30.17,SE,127,3.0,3.0,58,0.00,,,0.00,Wunderground v.1.15,2013-08-24 14:12:00,
2013-08-24 10:17:00,71.4,54.9,30.17,ENE,68,1.0,8.0,56,0.00,,,0.00,Wunderground v.1.15,2013-08-24 14:17:00,
2013-08-24 10:22:00,71.5,55.0,30.18,East,91,1.0,5.0,56,0.00,,,0.00,Wunderground v.1.15,2013-08-24 14:22:00,
2013-08-24 10:27:00,72.1,55.0,30.18,NNE,23,3.0,7.0,55,0.00,,,0.00,Wunderground v.1.15,2013-08-24 14:27:00,
2013-08-24 10:32:00,72.5,54.9,30.18,ENE,73,4.0,5.0,54,0.00,,,0.00,Wunderground v.1.15,2013-08-24 14:32:00,
2013-08-24 10:37:00,72.8,54.7,30.17,NNE,20,1.0,7.0,53,0.00,,,0.00,Wunderground v.1.15,2013-08-24 14:37:00,
2013-08-24 10:42:00,72.8,55.2,30.18,NW,318,1.0,4.0,54,0.00,,,0.00,Wunderground v.1.15,2013-08-24 14:42:00,
2013-08-24 10:47:00,73.3,55.1,30.17,North,7,3.0,5.0,53,0.00,,,0.00,Wunderground v.1.15,2013-08-24 14:47:00,
2013-08-24 10:52:00,73.7,54.4,30.18,North,358,7.0,7.0,51,0.00,,,0.00,Wunderground v.1.15,2013-08-24 14:52:00,
2013-08-24 10:57:00,73.6,53.8,30.18,NNW,343,4.0,7.0,50,0.00,,,0.00,Wunderground v.1.15,2013-08-24 14:57:00,
2013-08-24 11:02:00,73.6,53.8,30.18,ENE,67,2.0,6.0,50,0.00,,,0.00,Wunderground v.1.15,2013-08-24 15:02:00,
2013-08-24 11:07:00,73.8,54.5,30.17,North,351,6.0,6.0,51,0.00,,,0.00,Wunderground v.1.15,2013-08-24 15:07:00,
2013-08-24 11:12:00,74.2,54.4,30.18,NE,56,4.0,5.0,50,0.00,,,0.00,Wunderground v.1.15,2013-08-24 15:12:00,
2013-08-24 11:17:00,74.7,54.3,30.18,East,97,3.0,8.0,49,0.00,,,0.00,Wunderground v.1.15,2013-08-24 15:17:00,
2013-08-24 11:22:00,74.6,53.6,30.18,NE,53,2.0,6.0,48,0.00,,,0.00,Wunderground v.1.15,2013-08-24 15:22:00,
2013-08-24 11:27:00,74.8,53.8,30.17,East,79,2.0,9.0,48,0.00,,,0.00,Wunderground v.1.15,2013-08-24 15:27:00,
2013-08-24 11:32:00,74.9,54.4,30.17,ENE,63,1.0,3.0,49,0.00,,,0.00,Wunderground v.1.15,2013-08-24 15:32:00,
2013-08-24 11:37:00,75.2,54.2,30.17,ENE,77,4.0,8.0,48,0.00,,,0.00,Wunderground v.1.15,2013-08-24 15:37:00,
2013-08-24 11:42:00,75.5,53.9,30.17,East,84,1.0,4.0,47,0.00,,,0.00,Wunderground v.1.15,2013-08-24 15:42:00,
2013-08-24 11:47:00,76.3,55.2,30.17,NE,53,7.0,7.0,48,0.00,,,0.00,Wunderground v.1.15,2013-08-24 15:47:00,
2013-08-24 11:53:00,75.8,54.7,30.17,East,94,1.0,3.0,48,0.00,,,0.00,Wunderground v.1.15,2013-08-24 15:53:00,
2013-08-24 11:58:00,75.7,54.0,30.17,NNE,32,4.0,7.0,47,0.00,,,0.00,Wunderground v.1.15,2013-08-24 15:58:00,
2013-08-24 12:03:00,75.9,53.6,30.17,NE,47,5.0,7.0,46,0.00,,,0.00,Wunderground v.1.15,2013-08-24 16:03:00,
2013-08-24 12:08:00,76.0,54.9,30.17,ESE,105,4.0,7.0,48,0.00,,,0.00,Wunderground v.1.15,2013-08-24 16:08:00,
2013-08-24 12:13:00,76.0,55.5,30.17,ESE,108,2.0,3.0,49,0.00,,,0.00,Wunderground v.1.15,2013-08-24 16:13:00,
2013-08-24 12:18:00,76.4,55.3,30.17,East,79,3.0,7.0,48,0.00,,,0.00,Wunderground v.1.15,2013-08-24 16:18:00,
2013-08-24 12:23:00,76.8,56.2,30.17,NNE,32,1.0,8.0,49,0.00,,,0.00,Wunderground v.1.15,2013-08-24 16:23:00,
2013-08-24 12:28:00,76.6,54.3,30.17,ENE,76,3.0,8.0,46,0.00,,,0.00,Wunderground v.1.15,2013-08-24 16:28:00,
2013-08-24 12:33:00,76.2,53.9,30.17,ENE,61,4.0,6.0,46,0.00,,,0.00,Wunderground v.1.15,2013-08-24 16:33:00,
2013-08-24 12:38:00,76.6,51.8,30.17,NNW,329,5.0,10.0,42,0.00,,,0.00,Wunderground v.1.15,2013-08-24 16:38:00,
2013-08-24 12:43:00,77.2,53.0,30.16,NE,34,5.0,5.0,43,0.00,,,0.00,Wunderground v.1.15,2013-08-24 16:43:00,
2013-08-24 12:48:00,77.2,51.7,30.16,NNW,331,5.0,10.0,41,0.00,,,0.00,Wunderground v.1.15,2013-08-24 16:48:00,
2013-08-24 12:53:00,77.0,52.8,30.16,ENE,68,1.0,11.0,43,0.00,,,0.00,Wunderground v.1.15,2013-08-24 16:53:00,
2013-08-24 12:58:00,77.4,53.8,30.16,NE,49,1.0,11.0,44,0.00,,,0.00,Wunderground v.1.15,2013-08-24 16:58:00,
2013-08-24 13:04:00,78.0,51.0,30.16,NNW,335,6.0,10.0,39,0.00,,,0.00,Wunderground v.1.15,2013-08-24 17:04:00,
2013-08-24 13:09:00,78.4,52.7,30.17,NW,321,4.0,10.0,41,0.00,,,0.00,Wunderground v.1.15,2013-08-24 17:09:00,
2013-08-24 13:14:00,78.6,50.9,30.17,North,359,2.0,6.0,38,0.00,,,0.00,Wunderground v.1.15,2013-08-24 17:14:00,
2013-08-24 13:19:00,78.4,52.1,30.17,ENE,60,3.0,9.0,40,0.00,,,0.00,Wunderground v.1.15,2013-08-24 17:19:00,
2013-08-24 13:24:00,78.2,53.9,30.16,ESE,102,1.0,4.0,43,0.00,,,0.00,Wunderground v.1.15,2013-08-24 17:24:00,
2013-08-24 13:29:00,78.9,53.2,30.17,NNE,25,2.0,5.0,41,0.00,,,0.00,Wunderground v.1.15,2013-08-24 17:29:00,
2013-08-24 13:34:00,78.9,51.8,30.16,NE,34,3.0,5.0,39,0.00,,,0.00,Wunderground v.1.15,2013-08-24 17:34:00,
2013-08-24 13:39:00,79.0,53.3,30.16,North,5,5.0,6.0,41,0.00,,,0.00,Wunderground v.1.15,2013-08-24 17:39:00,
2013-08-24 13:44:00,78.7,51.7,30.16,NNW,335,3.0,7.0,39,0.00,,,0.00,Wunderground v.1.15,2013-08-24 17:44:00,
2013-08-24 13:49:00,78.5,52.2,30.16,NE,40,6.0,7.0,40,0.00,,,0.00,Wunderground v.1.15,2013-08-24 17:49:00,
2013-08-24 13:54:00,78.8,55.0,30.16,East,92,1.0,4.0,44,0.00,,,0.00,Wunderground v.1.15,2013-08-24 17:54:00,
2013-08-24 13:59:00,79.6,54.5,30.16,East,100,2.0,4.0,42,0.00,,,0.00,Wunderground v.1.15,2013-08-24 17:59:00,
2013-08-24 14:04:00,79.9,54.8,30.16,NE,36,0.0,3.0,42,0.00,,,0.00,Wunderground v.1.15,2013-08-24 18:04:00,
2013-08-24 14:10:00,80.0,55.5,30.16,East,80,2.0,8.0,43,0.00,,,0.00,Wunderground v.1.15,2013-08-24 18:10:00,
2013-08-24 14:15:00,79.9,54.1,30.16,ENE,78,3.0,6.0,41,0.00,,,0.00,Wunderground v.1.15,2013-08-24 18:15:00,
2013-08-24 14:20:00,79.1,52.0,30.16,North,354,1.0,6.0,39,0.00,,,0.00,Wunderground v.1.15,2013-08-24 18:20:00,
2013-08-24 14:25:00,78.7,53.7,30.16,NW,304,1.0,4.0,42,0.00,,,0.00,Wunderground v.1.15,2013-08-24 18:25:00,
2013-08-24 14:30:00,79.2,52.8,30.16,ESE,107,2.0,7.0,40,0.00,,,0.00,Wunderground v.1.15,2013-08-24 18:30:00,
2013-08-24 14:35:00,80.3,55.1,30.16,SE,124,1.0,3.0,42,0.00,,,0.00,Wunderground v.1.15,2013-08-24 18:35:00,
2013-08-24 14:40:00,80.9,53.6,30.16,South,186,2.0,3.0,39,0.00,,,0.00,Wunderground v.1.15,2013-08-24 18:40:00,
2013-08-24 14:45:00,80.6,54.0,30.16,ESE,112,2.0,5.0,40,0.00,,,0.00,Wunderground v.1.15,2013-08-24 18:45:00,
2013-08-24 14:50:00,80.5,54.6,30.15,East,98,2.0,2.0,41,0.00,,,0.00,Wunderground v.1.15,2013-08-24 18:50:00,
2013-08-24 14:55:00,80.8,53.5,30.16,ESE,105,2.0,5.0,39,0.00,,,0.00,Wunderground v.1.15,2013-08-24 18:55:00,
2013-08-24 15:00:00,81.0,52.3,30.16,ESE,107,3.0,3.0,37,0.00,,,0.00,Wunderground v.1.15,2013-08-24 19:00:00,
2013-08-24 15:05:00,80.4,51.7,30.16,ESE,103,1.0,5.0,37,0.00,,,0.00,Wunderground v.1.15,2013-08-24 19:05:00,
2013-08-24 15:10:00,80.6,53.4,30.16,NE,52,8.0,8.0,39,0.00,,,0.00,Wunderground v.1.15,2013-08-24 19:10:00,
2013-08-24 15:15:00,80.3,52.4,30.16,North,356,2.0,8.0,38,0.00,,,0.00,Wunderground v.1.15,2013-08-24 19:15:00,
2013-08-24 15:20:00,80.4,51.7,30.16,NE,52,1.0,2.0,37,0.00,,,0.00,Wunderground v.1.15,2013-08-24 19:20:00,
2013-08-24 15:25:00,80.7,53.4,30.15,NNW,330,1.0,3.0,39,0.00,,,0.00,Wunderground v.1.15,2013-08-24 19:25:00,
2013-08-24 15:30:00,80.6,52.6,30.16,NW,326,2.0,2.0,38,0.00,,,0.00,Wunderground v.1.15,2013-08-24 19:30:00,
2013-08-24 15:35:00,80.7,52.7,30.15,West,280,1.0,5.0,38,0.00,,,0.00,Wunderground v.1.15,2013-08-24 19:35:00,
2013-08-24 15:40:00,81.4,53.4,30.15,East,101,2.0,2.0,38,0.00,,,0.00,Wunderground v.1.15,2013-08-24 19:40:00,
2013-08-24 15:45:00,81.3,54.0,30.15,East,86,1.0,4.0,39,0.00,,,0.00,Wunderground v.1.15,2013-08-24 19:45:00,
2013-08-24 15:50:00,81.7,54.3,30.15,South,183,1.0,1.0,39,0.00,,,0.00,Wunderground v.1.15,2013-08-24 19:50:00,
2013-08-24 15:56:00,82.1,55.4,30.16,SE,138,2.0,3.0,40,0.00,,,0.00,Wunderground v.1.15,2013-08-24 19:56:00,
2013-08-24 16:01:00,81.4,56.8,30.15,East,84,1.0,2.0,43,0.00,,,0.00,Wunderground v.1.15,2013-08-24 20:01:00,
2013-08-24 16:06:00,81.2,56.6,30.15,ESE,107,3.0,6.0,43,0.00,,,0.00,Wunderground v.1.15,2013-08-24 20:06:00,
2013-08-24 16:11:00,80.5,55.9,30.15,South,170,2.0,4.0,43,0.00,,,0.00,Wunderground v.1.15,2013-08-24 20:11:00,
2013-08-24 16:16:00,80.3,57.6,30.15,SSW,203,5.0,5.0,46,0.00,,,0.00,Wunderground v.1.15,2013-08-24 20:16:00,
2013-08-24 16:21:00,80.6,57.9,30.15,SE,127,1.0,6.0,46,0.00,,,0.00,Wunderground v.1.15,2013-08-24 20:21:00,
2013-08-24 16:26:00,80.5,57.2,30.15,South,179,3.0,10.0,45,0.00,,,0.00,Wunderground v.1.15,2013-08-24 20:26:00,
2013-08-24 16:31:00,80.0,57.4,30.15,ENE,70,1.0,4.0,46,0.00,,,0.00,Wunderground v.1.15,2013-08-24 20:31:00,
2013-08-24 16:36:00,79.7,57.1,30.15,ENE,73,1.0,6.0,46,0.00,,,0.00,Wunderground v.1.15,2013-08-24 20:36:00,
2013-08-24 16:41:00,79.5,58.1,30.15,East,98,4.0,7.0,48,0.00,,,0.00,Wunderground v.1.15,2013-08-24 20:41:00,
2013-08-24 16:46:00,79.5,58.7,30.15,ENE,75,1.0,7.0,49,0.00,,,0.00,Wunderground v.1.15,2013-08-24 20:46:00,
2013-08-24 16:51:00,79.4,58.6,30.15,SE,138,1.0,2.0,49,0.00,,,0.00,Wunderground v.1.15,2013-08-24 20:51:00,
2013-08-24 16:56:00,79.4,57.4,30.15,South,169,2.0,5.0,47,0.00,,,0.00,Wunderground v.1.15,2013-08-24 20:56:00,
2013-08-24 17:01:00,79.2,57.8,30.16,South,186,6.0,6.0,48,0.00,,,0.00,Wunderground v.1.15,2013-08-24 21:01:00,
2013-08-24 17:06:00,79.2,57.2,30.16,West,274,1.0,6.0,47,0.00,,,0.00,Wunderground v.1.15,2013-08-24 21:06:00,
2013-08-24 17:11:00,79.2,56.6,30.16,SW,233,3.0,4.0,46,0.00,,,0.00,Wunderground v.1.15,2013-08-24 21:11:00,
2013-08-24 17:16:00,79.4,57.4,30.16,SSW,192,3.0,5.0,47,0.00,,,0.00,Wunderground v.1.15,2013-08-24 21:16:00,
2013-08-24 17:21:00,78.9,56.4,30.15,SW,218,2.0,3.0,46,0.00,,,0.00,Wunderground v.1.15,2013-08-24 21:21:00,
2013-08-24 17:27:00,78.9,58.1,30.16,SSW,194,5.0,5.0,49,0.00,,,0.00,Wunderground v.1.15,2013-08-24 21:27:00,
2013-08-24 17:32:00,79.2,57.2,30.16,SW,224,4.0,4.0,47,0.00,,,0.00,Wunderground v.1.15,2013-08-24 21:32:00,
2013-08-24 17:37:00,79.1,56.5,30.16,SSE,165,1.0,4.0,46,0.00,,,0.00,Wunderground v.1.15,2013-08-24 21:37:00,
2013-08-24 17:42:00,78.9,57.0,30.16,SSE,166,0.0,2.0,47,0.00,,,0.00,Wunderground v.1.15,2013-08-24 21:42:00,
2013-08-24 17:47:00,79.0,56.5,30.16,South,172,2.0,4.0,46,0.00,,,0.00,Wunderground v.1.15,2013-08-24 21:47:00,
2013-08-24 17:52:00,78.7,56.2,30.16,SE,130,2.0,6.0,46,0.00,,,0.00,Wunderground v.1.15,2013-08-24 21:52:00,
2013-08-24 17:57:00,78.4,55.9,30.16,SE,136,2.0,6.0,46,0.00,,,0.00,Wunderground v.1.15,2013-08-24 21:57:00,
2013-08-24 18:02:00,78.3,56.4,30.16,ESE,110,2.0,2.0,47,0.00,,,0.00,Wunderground v.1.15,2013-08-24 22:02:00,
2013-08-24 18:07:00,78.1,55.6,30.16,SE,143,0.0,7.0,46,0.00,,,0.00,Wunderground v.1.15,2013-08-24 22:07:00,
2013-08-24 18:12:00,78.2,55.7,30.16,SSW,201,2.0,4.0,46,0.00,,,0.00,Wunderground v.1.15,2013-08-24 22:12:00,
2013-08-24 18:17:00,78.2,55.1,30.16,South,180,2.0,6.0,45,0.00,,,0.00,Wunderground v.1.15,2013-08-24 22:17:00,
2013-08-24 18:22:00,78.1,56.2,30.16,ENE,77,2.0,2.0,47,0.00,,,0.00,Wunderground v.1.15,2013-08-24 22:22:00,
2013-08-24 18:27:00,77.9,55.5,30.16,SE,144,1.0,5.0,46,0.00,,,0.00,Wunderground v.1.15,2013-08-24 22:27:00,
2013-08-24 18:32:00,77.9,56.0,30.16,East,96,2.0,3.0,47,0.00,,,0.00,Wunderground v.1.15,2013-08-24 22:32:00,
2013-08-24 18:37:00,77.1,56.5,30.16,ESE,103,1.0,3.0,49,0.00,,,0.00,Wunderground v.1.15,2013-08-24 22:37:00,
2013-08-24 18:42:00,76.5,57.0,30.16,East,94,2.0,2.0,51,0.00,,,0.00,Wunderground v.1.15,2013-08-24 22:42:00,
2013-08-24 18:47:00,76.0,57.1,30.16,South,169,2.0,2.0,52,0.00,,,0.00,Wunderground v.1.15,2013-08-24 22:47:00,
2013-08-24 18:52:00,75.4,57.6,30.16,ESE,103,1.0,3.0,54,0.00,,,0.00,Wunderground v.1.15,2013-08-24 22:52:00,
2013-08-24 18:57:00,74.9,57.1,30.16,East,96,1.0,3.0,54,0.00,,,0.00,Wunderground v.1.15,2013-08-24 22:57:00,
2013-08-24 19:02:00,74.6,57.4,30.16,SSW,210,1.0,2.0,55,0.00,,,0.00,Wunderground v.1.15,2013-08-24 23:02:00,
2013-08-24 19:07:00,74.2,57.5,30.16,South,188,0.0,2.0,56,0.00,,,0.00,Wunderground v.1.15,2013-08-24 23:07:00,
2013-08-24 19:12:00,73.8,57.1,30.16,East,96,0.0,1.0,56,0.00,,,0.00,Wunderground v.1.15,2013-08-24 23:12:00,
2013-08-24 19:18:00,73.4,57.2,30.16,East,96,0.0,1.0,57,0.00,,,0.00,Wunderground v.1.15,2013-08-24 23:18:00,
2013-08-24 19:23:00,73.0,57.8,30.17,East,93,0.0,2.0,59,0.00,,,0.00,Wunderground v.1.15,2013-08-24 23:23:00,
2013-08-24 19:28:00,72.6,57.9,30.17,East,93,0.0,2.0,60,0.00,,,0.00,Wunderground v.1.15,2013-08-24 23:28:00,
2013-08-24 19:33:00,72.2,58.0,30.17,East,94,0.0,0.0,61,0.00,,,0.00,Wunderground v.1.15,2013-08-24 23:33:00,
2013-08-24 19:38:00,71.8,58.1,30.17,East,94,0.0,1.0,62,0.00,,,0.00,Wunderground v.1.15,2013-08-24 23:38:00,
2013-08-24 19:43:00,71.4,58.1,30.17,SE,142,0.0,0.0,63,0.00,,,0.00,Wunderground v.1.15,2013-08-24 23:43:00,
2013-08-24 19:48:00,71.0,58.2,30.18,SE,143,0.0,0.0,64,0.00,,,0.00,Wunderground v.1.15,2013-08-24 23:48:00,
2013-08-24 19:53:00,70.5,58.6,30.18,SE,144,0.0,0.0,66,0.00,,,0.00,Wunderground v.1.15,2013-08-24 23:53:00,
2013-08-24 19:58:00,70.2,58.3,30.18,SE,145,0.0,0.0,66,0.00,,,0.00,Wunderground v.1.15,2013-08-24 23:58:00,
2013-08-24 20:03:00,69.9,58.4,30.18,SE,145,0.0,0.0,67,0.00,,,0.00,Wunderground v.1.15,2013-08-25 00:03:00,
2013-08-24 20:08:00,69.5,58.5,30.18,SE,146,0.0,0.0,68,0.00,,,0.00,Wunderground v.1.15,2013-08-25 00:08:00,
2013-08-24 20:13:00,69.0,58.4,30.18,SE,146,0.0,0.0,69,0.00,,,0.00,Wunderground v.1.15,2013-08-25 00:13:00,
2013-08-24 20:18:00,68.5,58.7,30.18,SE,145,0.0,0.0,71,0.00,,,0.00,Wunderground v.1.15,2013-08-25 00:18:00,
2013-08-24 20:23:00,68.1,58.7,30.19,SE,145,0.0,0.0,72,0.00,,,0.00,Wunderground v.1.15,2013-08-25 00:23:00,
2013-08-24 20:28:00,67.7,58.7,30.19,SE,145,0.0,0.0,73,0.00,,,0.00,Wunderground v.1.15,2013-08-25 00:28:00,
2013-08-24 20:34:00,67.2,58.6,30.19,SE,145,0.0,0.0,74,0.00,,,0.00,Wunderground v.1.15,2013-08-25 00:34:00,
2013-08-24 20:39:00,66.8,58.6,30.19,SE,146,0.0,0.0,75,0.00,,,0.00,Wunderground v.1.15,2013-08-25 00:39:00,
2013-08-24 20:44:00,66.5,58.7,30.19,SE,145,0.0,0.0,76,0.00,,,0.00,Wunderground v.1.15,2013-08-25 00:44:00,
2013-08-24 20:49:00,66.3,58.9,30.20,SE,145,0.0,0.0,77,0.00,,,0.00,Wunderground v.1.15,2013-08-25 00:49:00,
2013-08-24 20:54:00,66.0,59.3,30.20,SE,145,0.0,1.0,79,0.00,,,0.00,Wunderground v.1.15,2013-08-25 00:54:00,
2013-08-24 20:59:00,65.9,59.2,30.20,South,184,1.0,1.0,79,0.00,,,0.00,Wunderground v.1.15,2013-08-25 00:59:00,
2013-08-24 21:04:00,66.0,59.3,30.20,WSW,242,0.0,1.0,79,0.00,,,0.00,Wunderground v.1.15,2013-08-25 01:04:00,
2013-08-24 21:09:00,65.8,59.1,30.20,WSW,242,0.0,1.0,79,0.00,,,0.00,Wunderground v.1.15,2013-08-25 01:09:00,
2013-08-24 21:14:00,65.9,59.6,30.21,SW,235,0.0,1.0,80,0.00,,,0.00,Wunderground v.1.15,2013-08-25 01:14:00,
2013-08-24 21:19:00,65.8,59.5,30.21,SW,235,0.0,1.0,80,0.00,,,0.00,Wunderground v.1.15,2013-08-25 01:19:00,
2013-08-24 21:24:00,65.4,59.1,30.21,SW,233,0.0,0.0,80,0.00,,,0.00,Wunderground v.1.15,2013-08-25 01:24:00,
2013-08-24 21:29:00,65.0,59.4,30.21,SW,235,0.0,1.0,82,0.00,,,0.00,Wunderground v.1.15,2013-08-25 01:29:00,
2013-08-24 21:34:00,64.8,59.2,30.21,SW,235,1.0,1.0,82,0.00,,,0.00,Wunderground v.1.15,2013-08-25 01:34:00,
2013-08-24 21:39:00,65.1,59.1,30.21,SW,236,0.0,1.0,81,0.00,,,0.00,Wunderground v.1.15,2013-08-25 01:39:00,
2013-08-24 21:44:00,65.1,59.1,30.21,SW,236,0.0,0.0,81,0.00,,,0.00,Wunderground v.1.15,2013-08-25 01:44:00,
2013-08-24 21:49:00,64.8,59.2,30.21,SW,236,0.0,0.0,82,0.00,,,0.00,Wunderground v.1.15,2013-08-25 01:49:00,
2013-08-24 21:54:00,64.4,59.1,30.21,WSW,237,0.0,0.0,83,0.00,,,0.00,Wunderground v.1.15,2013-08-25 01:54:00,
2013-08-24 21:59:00,63.9,59.0,30.21,SW,236,0.0,0.0,84,0.00,,,0.00,Wunderground v.1.15,2013-08-25 01:59:00,
2013-08-24 22:04:00,63.5,58.9,30.22,SW,236,0.0,0.0,85,0.00,,,0.00,Wunderground v.1.15,2013-08-25 02:04:00,
2013-08-24 22:09:00,63.2,58.9,30.22,SW,236,0.0,1.0,86,0.00,,,0.00,Wunderground v.1.15,2013-08-25 02:09:00,
2013-08-24 22:14:00,62.9,58.6,30.22,SW,236,0.0,0.0,86,0.00,,,0.00,Wunderground v.1.15,2013-08-25 02:14:00,
2013-08-24 22:19:00,62.7,59.1,30.22,SW,236,0.0,1.0,88,0.00,,,0.00,Wunderground v.1.15,2013-08-25 02:19:00,
2013-08-24 22:25:00,62.4,58.8,30.21,SW,236,0.0,0.0,88,0.00,,,0.00,Wunderground v.1.15,2013-08-25 02:25:00,
2013-08-24 22:30:00,62.1,58.5,30.21,SW,236,0.0,0.0,88,0.00,,,0.00,Wunderground v.1.15,2013-08-25 02:30:00,
2013-08-24 22:35:00,61.7,58.4,30.21,SW,236,0.0,0.0,89,0.00,,,0.00,Wunderground v.1.15,2013-08-25 02:35:00,
2013-08-24 22:40:00,61.5,58.2,30.21,SW,236,0.0,0.0,89,0.00,,,0.00,Wunderground v.1.15,2013-08-25 02:40:00,
2013-08-24 22:45:00,61.4,58.7,30.22,SW,236,0.0,0.0,91,0.00,,,0.00,Wunderground v.1.15,2013-08-25 02:45:00,
2013-08-24 22:50:00,61.4,58.7,30.22,SW,236,0.0,0.0,91,0.00,,,0.00,Wunderground v.1.15,2013-08-25 02:50:00,
2013-08-24 22:55:00,61.2,58.6,30.22,SW,236,0.0,0.0,91,0.00,,,0.00,Wunderground v.1.15,2013-08-25 02:55:00,
2013-08-24 23:00:00,61.1,58.5,30.22,SW,236,0.0,0.0,91,0.00,,,0.00,Wunderground v.1.15,2013-08-25 03:00:00,
2013-08-24 23:05:00,60.9,58.6,30.22,SW,236,0.0,0.0,92,0.00,,,0.00,Wunderground v.1.15,2013-08-25 03:05:00,
2013-08-24 23:10:00,60.8,58.5,30.22,SW,236,0.0,0.0,92,0.00,,,0.00,Wunderground v.1.15,2013-08-25 03:10:00,
2013-08-24 23:15:00,60.5,58.2,30.22,SW,236,0.0,0.0,92,0.00,,,0.00,Wunderground v.1.15,2013-08-25 03:15:00,
2013-08-24 23:20:00,60.3,58.0,30.22,SW,236,0.0,0.0,92,0.00,,,0.00,Wunderground v.1.15,2013-08-25 03:20:00,
2013-08-24 23:25:00,60.1,58.1,30.22,SW,236,0.0,0.0,93,0.00,,,0.00,Wunderground v.1.15,2013-08-25 03:25:00,
2013-08-24 23:30:00,59.7,57.7,30.23,SW,236,0.0,0.0,93,0.00,,,0.00,Wunderground v.1.15,2013-08-25 03:30:00,
2013-08-24 23:35:00,59.5,57.8,30.22,WSW,237,0.0,0.0,94,0.00,,,0.00,Wunderground v.1.15,2013-08-25 03:35:00,
2013-08-24 23:40:00,59.7,58.0,30.23,SW,236,0.0,0.0,94,0.00,,,0.00,Wunderground v.1.15,2013-08-25 03:40:00,
2013-08-24 23:45:00,59.7,58.3,30.23,SW,236,0.0,0.0,95,0.00,,,0.00,Wunderground v.1.15,2013-08-25 03:45:00,
2013-08-24 23:50:00,59.7,58.3,30.23,WSW,237,0.0,0.0,95,0.00,,,0.00,Wunderground v.1.15,2013-08-25 03:50:00,
2013-08-24 23:55:00,59.5,58.1,30.23,SW,236,0.0,0.0,95,0.00,,,0.00,Wunderground v.1.15,2013-08-25 03:55:00,